Temp
26 27 26 27 25 26 27 27 27 27 27 27 26 26 25 24 24 21 22 22 21 21 19 19 19 18 18 18 18 18 18 16 16 16 16 16 16 16 16 17 17 17 16 16 16 15 15 15 16
26 26 27 25 25 26 26 27 28 26 26 26 26 26 27 23 24 23 23 23 22 20 19 19 18 18 18 18 18 18 17 16 16 16 16 16 16 16 16 17 17 16 16 16 15 15 15 15 16
25 26 25 26 27 26 26 29 26 25 26 27 26 26 26 24 23 23 23 22 22 21 20 19 19 18 18 18 18 18 17 16 16 16 16 16 16 16 16 16 16 16 16 15 15 15 14 15 16
26 27 26 26 28 27 28 29 26 25 26 26 27 24 24 23 24 23 22 22 22 21 20 19 19 19 18 18 18 18 17 16 16 16 16 16 15 15 16 15 15 15 15 15 14 14 14 15 16
27 26 25 27 29 28 28 28 27 26 25 25 27 25 22 24 23 22 22 23 22 21 20 20 19 18 18 18 18 18 18 16 16 15 15 15 15 15 15 15 14 14 14 14 14 13 14 15 16
25 27 25 26 27 28 28 28 28 28 27 25 26 26 23 23 22 22 22 23 22 21 21 19 18 18 18 18 18 18 17 17 16 16 15 15 15 15 15 14 14 14 14 13 13 13 15 15 15
26 25 25 27 28 28 28 28 28 27 26 26 27 27 22 22 22 22 22 23 22 21 20 19 18 18 18 18 18 17 17 17 17 16 16 16 15 15 15 14 14 14 13 13 13 14 14 14 15
25 26 26 29 27 28 27 27 28 28 26 26 27 25 22 22 23 22 22 23 22 21 20 19 18 18 18 18 18 17 17 17 17 17 16 16 16 15 15 14 14 14 13 13 14 15 14 14 14
27 24 24 27 29 28 26 26 27 26 26 26 25 25 24 24 22 22 22 23 22 21 20 19 19 18 18 18 17 17 17 17 17 16 16 16 16 15 14 14 14 15 15 15 15 15 14 14 13
25 23 26 27 27 27 26 26 24 26 25 25 24 21 23 23 22 20 21 22 22 21 20 19 19 19 18 18 18 17 17 16 17 16 16 16 15 15 15 14 14 15 15 15 15 14 14 14 13
26 24 26 26 24 25 27 26 28 25 25 25 24 20 22 22 21 18 19 21 21 20 20 20 19 19 18 18 18 17 17 16 16 16 16 16 16 15 15 15 15 15 15 15 14 13 13 13 13
25 27 27 25 23 25 26 27 26 25 26 26 24 22 21 19 20 20 19 20 20 19 19 19 19 19 18 18 18 18 18 17 17 17 16 16 16 15 15 16 15 14 14 13 13 13 12 12 12
24 26 25 23 23 23 23 24 25 24 24 25 25 23 20 20 21 22 21 20 21 19 18 18 18 18 18 18 18 18 18 18 17 17 17 16 16 15 14 15 15 14 13 12 12 12 12 12 12
24 25 25 24 24 24 23 24 24 24 23 24 22 22 22 20 22 23 23 21 21 21 19 18 18 17 18 18 18 18 18 18 18 17 17 16 16 15 15 15 15 14 13 12 12 12 12 12 11
24 24 23 23 23 23 23 21 22 23 25 25 24 21 22 22 24 23 23 23 22 22 21 19 18 17 18 18 18 18 19 18 18 17 17 16 16 16 15 14 14 14 13 13 12 11 11 10 10
23 24 23 24 22 22 22 22 25 25 23 23 23 23 22 22 24 25 25 23 23 22 22 20 18 17 17 18 18 18 18 18 18 18 17 17 16 16 15 15 14 14 13 12 12 12 10 10 10
23 22 22 22 23 23 21 22 24 24 25 23 22 22 22 22 23 26 25 24 23 23 22 20 19 18 17 17 17 18 18 18 18 18 18 18 17 16 16 15 14 14 13 12 12 11 11 9 9
23 22 24 25 22 22 21 19 22 23 22 21 21 22 22 22 22 26 25 24 23 22 22 20 19 17 16 16 17 17 17 17 17 18 18 18 17 16 15 14 14 14 13 12 11 11 10 9 8
23 23 23 24 21 22 20 20 22 23 23 22 21 21 21 22 24 27 26 24 23 22 21 20 19 17 17 16 16 16 16 16 16 17 17 17 17 16 15 14 14 13 13 13 12 10 9 8 8
23 22 21 23 21 21 20 20 21 22 22 22 22 22 22 22 22 24 26 25 23 22 21 20 19 18 16 16 15 15 16 16 16 16 16 17 17 16 15 14 14 13 12 11 9 9 8 8 8
21 21 21 22 21 20 19 18 21 22 22 22 22 23 23 22 22 22 22 24 23 21 21 20 19 18 16 15 15 15 15 15 15 15 15 16 16 15 14 13 13 13 13 12 11 10 10 8 7
20 22 22 21 20 19 22 17 22 23 23 23 21 21 21 22 22 22 24 22 22 21 21 19 18 18 16 16 15 15 14 14 14 14 14 14 14 13 13 13 13 12 12 11 11 11 10 10 7
20 20 21 21 19 19 20 17 19 22 23 24 24 23 23 23 22 22 21 24 23 22 20 19 18 17 17 16 15 15 14 14 14 13 13 12 10 12 12 12 12 12 12 11 11 9 8 9 9
18 19 20 19 18 15 18 18 20 22 24 26 27 26 22 21 21 22 22 22 22 21 20 19 18 17 16 16 15 15 14 13 13 13 12 11 9 10 10 11 11 11 12 11 10 9 9 9 9
19 19 17 15 14 14 19 18 21 23 23 24 24 23 24 20 21 20 19 17 19 19 18 18 17 16 16 15 15 14 14 14 13 13 12 11 9 9 10 11 11 11 12 11 10 9 8 8 7
16 18 15 16 15 16 14 16 19 22 24 24 23 21 22 21 19 17 17 18 18 17 16 16 15 15 15 15 14 14 14 13 13 13 12 12 11 10 11 11 11 11 11 10 9 9 8 7 6
17 16 20 17 10 12 17 19 22 22 22 21 20 21 20 19 17 18 19 19 17 16 15 14 14 14 14 14 14 13 13 13 12 12 13 11 11 11 10 11 11 10 10 10 9 9 9 7 6
17 18 16 15 14 13 17 18 19 22 21 20 22 22 20 19 18 17 16 17 17 16 15 14 14 14 13 13 13 13 13 12 12 12 12 11 11 10 10 9 10 10 10 9 8 8 8 7 6
15 16 17 18 15 14 15 17 23 22 21 20 20 20 20 19 17 16 15 16 16 15 15 14 14 14 13 13 13 12 12 12 11 11 11 11 11 10 10 9 9 9 9 8 8 7 8 7 7
17 17 17 15 15 14 13 19 21 20 20 20 21 21 21 19 17 17 16 16 16 15 14 14 14 14 15 15 13 12 11 11 10 11 10 10 10 10 9 9 9 9 8 8 7 6 7 7 6
Height
788 789 788 787 811 800 806 809 796 807 806 804 803 810 815 815 822 842 826 828 832 836 841 844 846 849 852 853 854 855 855 855 857 857 857 857 857 858 859 859 859 859 860 861 861 861 860 860 861
789 789 788 789 811 815 816 800 805 804 805 805 807 808 810 825 816 821 826 829 833 837 841 844 847 850 853 855 856 857 858 858 859 860 860 860 860 861 862 862 863 863 863 864 865 865 864 864 864
790 791 795 797 801 820 819 796 803 805 803 805 810 808 810 822 820 823 827 830 834 838 841 845 848 851 854 856 857 859 860 860 861 862 862 862 863 864 865 864 865 867 866 867 867 867 867 867 868
791 790 790 807 805 804 801 793 799 807 807 806 806 818 815 818 820 822 827 831 835 838 842 845 848 851 853 856 858 860 861 861 863 864 864 864 865 865 866 867 868 869 869 869 870 870 870 871 871
791 790 808 804 799 796 795 792 796 806 809 811 808 817 822 820 821 824 828 832 835 839 842 845 848 851 854 856 858 860 861 862 864 865 866 866 867 867 868 869 870 871 871 872 872 873 873 875 875
797 790 814 814 803 796 793 792 795 800 802 810 812 811 820 820 824 826 829 832 835 838 841 845 849 851 854 856 858 860 862 863 865 866 867 867 868 869 870 871 872 872 874 874 874 875 876 878 879
799 805 814 802 800 798 796 791 798 800 805 808 804 812 819 820 823 826 829 832 834 837 841 845 848 851 854 856 859 861 863 864 867 867 868 869 869 871 871 872 874 874 876 875 876 877 879 881 881
795 799 810 797 804 803 794 795 792 796 806 802 803 816 823 817 822 826 829 832 834 837 841 844 848 850 853 855 859 862 863 865 867 868 869 870 870 872 873 874 875 876 877 878 878 880 882 883 884
790 814 821 804 797 797 794 800 796 797 801 803 806 809 811 814 821 825 828 830 834 836 840 844 846 849 852 855 858 861 863 865 867 869 870 871 872 874 875 876 877 878 879 879 881 882 884 886 887
799 815 808 792 791 795 796 797 801 804 806 807 808 811 812 816 820 824 825 827 831 835 839 843 845 848 851 854 857 860 862 864 866 868 870 872 874 875 876 877 878 879 880 882 883 885 887 889 889
793 808 797 794 796 796 794 797 791 802 809 800 805 809 812 815 819 823 826 827 828 832 837 840 843 846 849 851 854 858 860 862 864 867 869 872 873 874 876 878 879 880 882 883 885 887 888 890 891
803 790 794 798 800 800 799 794 797 800 797 792 794 796 805 812 815 818 822 824 827 831 834 837 841 844 847 849 852 855 857 859 862 864 867 870 871 872 873 876 879 881 883 884 886 887 888 889 891
802 793 796 800 802 803 801 803 800 798 793 792 793 796 803 807 810 813 816 821 823 825 829 833 837 840 844 847 849 851 854 856 858 861 864 867 868 870 872 874 877 880 882 884 885 887 888 889 890
797 795 797 800 803 803 807 803 799 793 789 791 794 797 799 802 805 809 812 813 816 820 822 827 832 835 840 841 844 847 850 852 854 856 859 862 864 867 869 869 873 877 879 882 884 885 887 889 890
798 804 802 802 804 806 804 811 804 790 787 791 792 794 796 797 800 802 804 807 810 813 818 820 824 830 834 836 839 842 845 849 851 853 855 858 860 862 865 867 869 873 877 879 881 884 887 889 890
805 803 816 795 804 806 809 818 789 782 787 793 792 791 791 791 792 795 798 801 806 810 813 815 818 823 828 831 834 837 840 843 846 850 852 854 856 858 860 863 865 868 873 876 879 881 885 888 889
807 823 816 812 802 806 814 811 793 784 785 790 792 789 787 785 784 787 792 795 799 803 807 810 812 815 821 826 830 833 837 839 841 844 847 850 851 852 855 858 861 864 868 871 875 878 881 885 889
814 818 807 805 810 810 814 815 796 788 789 791 789 786 783 781 778 780 784 789 793 797 801 805 808 811 816 822 826 829 832 834 837 840 843 845 847 848 851 854 857 860 863 867 871 874 878 881 886
802 809 808 801 809 811 814 809 798 786 782 784 783 780 778 775 772 773 776 780 786 791 795 798 803 806 811 814 818 821 822 826 829 833 837 840 843 843 845 847 851 854 857 861 863 871 874 879 884
803 815 816 803 808 813 812 806 793 784 777 774 774 773 770 768 767 767 769 772 777 782 788 792 796 799 802 807 809 814 816 819 823 826 829 833 835 837 840 840 843 846 851 855 862 862 867 873 876
808 816 816 814 811 808 814 810 789 773 768 767 764 761 761 762 763 762 762 765 769 775 780 785 789 792 797 802 807 811 815 818 818 818 821 825 828 830 832 834 836 839 843 846 852 856 857 861 869
818 803 806 812 823 835 807 838 789 777 771 765 762 762 759 757 755 756 758 761 763 766 773 778 785 790 793 798 800 802 803 806 807 809 812 817 822 824 827 829 830 833 837 840 843 846 850 851 856
811 806 807 811 824 825 818 838 800 776 776 763 756 754 752 751 751 753 755 757 761 765 769 774 779 783 786 790 793 796 798 800 802 806 810 813 815 818 820 822 824 827 830 833 836 840 843 845 848
809 813 814 818 826 847 820 821 798 784 768 754 747 747 752 754 754 754 756 757 759 762 766 769 773 777 782 786 789 790 791 795 799 800 802 804 807 810 814 817 819 821 823 825 829 833 835 839 841
812 817 842 850 856 844 804 812 785 763 756 754 753 752 752 755 755 757 758 759 760 761 763 767 770 773 777 781 784 787 790 790 791 793 793 796 798 800 802 806 808 811 815 819 822 826 828 832 835
818 815 838 847 847 830 823 815 785 755 746 747 748 751 751 754 755 754 755 756 758 760 763 766 769 772 775 777 779 781 784 787 787 789 787 788 789 793 796 801 803 805 809 813 816 819 823 826 830
812 820 801 821 853 849 812 783 763 756 756 754 755 754 755 755 756 754 753 755 757 760 762 764 767 770 772 773 776 778 780 781 782 785 785 784 785 787 789 792 796 800 803 806 810 813 817 820 823
800 797 822 827 847 848 806 798 787 766 763 756 752 754 755 755 755 755 754 757 759 760 761 763 764 766 768 770 772 773 775 776 777 778 777 778 779 782 783 786 789 792 795 799 803 806 810 814 817
808 808 803 804 817 831 822 799 752 756 757 759 758 757 757 756 757 756 756 757 759 759 760 760 761 761 762 763 764 766 768 770 771 772 772 772 774 776 777 778 783 785 788 792 796 800 803 806 810
791 791 797 813 814 817 821 778 749 753 754 756 757 756 755 755 758 757 756 756 757 759 760 758 758 758 757 757 757 758 761 763 765 766 767 769 770 772 774 775 777 779 782 785 788 792 795 799 803
Wind_Speed
7 11 9 6 2 3 4 5 8 7 4 3 8 5 5 8 5 4 23 18 23 19 20 16 14 12 12 13 14 11 13 15 14 14 15 15 16 16 16 18 20 22 20 19 18 19 20 21 23
6 7 5 3 3 2 4 9 6 8 8 8 5 2 1 5 7 11 12 22 23 19 17 16 15 14 14 14 14 11 13 15 15 15 15 15 16 17 17 17 19 20 19 18 18 18 20 21 25
6 3 2 3 3 5 5 3 9 8 6 3 4 2 5 4 11 17 17 22 23 20 15 16 16 15 15 14 15 12 13 15 15 15 15 16 16 17 17 17 18 19 18 17 18 18 20 22 25
4 4 4 2 3 7 7 5 12 8 4 4 4 7 5 6 16 13 21 21 19 18 18 16 17 16 16 16 15 12 12 15 14 14 15 16 16 17 18 17 18 17 18 17 18 18 18 21 25
3 4 4 4 4 5 5 7 9 6 8 7 2 4 4 7 14 19 20 20 19 19 17 16 18 17 16 16 15 13 12 14 14 14 15 16 16 17 18 17 17 17 18 18 18 18 19 22 23
2 2 4 4 7 7 4 5 6 6 6 6 2 4 5 12 12 19 19 18 21 21 16 19 18 16 16 16 15 14 12 13 14 14 15 16 16 17 18 18 18 18 18 18 19 18 21 23 21
2 3 7 6 4 4 6 5 3 5 8 6 3 1 4 15 16 17 19 18 20 17 14 18 19 17 15 16 15 15 14 13 13 14 14 16 17 17 17 17 18 18 18 18 18 19 21 22 21
2 2 9 3 3 2 6 6 1 4 4 2 3 3 5 15 18 19 18 18 18 20 18 16 17 18 17 17 16 15 15 14 13 13 14 15 16 17 17 17 17 17 17 18 18 20 22 24 21
1 2 6 7 3 1 8 5 2 3 5 1 5 3 3 24 19 18 19 19 18 20 18 19 18 16 17 18 18 16 16 15 14 14 14 15 17 17 14 16 16 16 16 17 17 20 22 22 21
3 3 7 7 7 5 7 6 9 3 6 5 5 8 11 22 19 15 13 19 20 21 20 20 21 20 19 17 19 19 18 18 18 16 17 13 16 13 15 16 16 16 16 18 20 20 18 18 20
4 3 6 6 7 8 2 4 1 6 5 8 9 13 11 18 20 19 17 17 19 16 21 22 21 22 23 23 20 19 19 20 19 16 19 17 17 15 16 16 16 16 18 21 20 16 13 11 12
2 2 3 4 4 2 3 4 4 7 4 4 7 15 16 11 16 22 24 24 25 24 24 21 21 23 23 22 20 22 21 20 21 20 20 21 21 19 19 17 16 17 18 19 14 14 15 15 15
4 2 3 6 2 4 5 5 5 7 11 6 5 8 12 11 18 24 26 26 24 29 30 30 27 25 23 22 22 22 22 22 23 24 23 23 25 22 19 19 20 19 18 16 14 15 15 16 17
5 5 3 4 4 2 2 5 2 6 10 7 9 8 8 10 20 22 24 30 32 29 31 32 31 29 27 28 28 25 24 21 23 23 26 28 26 26 24 24 24 21 21 18 15 17 16 16 17
1 1 4 6 5 1 2 7 10 10 3 6 8 10 10 10 21 24 29 27 32 32 29 36 35 34 29 28 28 29 28 22 19 22 22 27 29 29 31 25 26 25 24 21 19 19 17 17 17
3 1 2 1 8 3 2 7 7 1 10 9 9 8 10 12 18 25 26 29 27 29 31 31 33 34 35 29 28 27 29 33 32 24 21 23 29 30 30 29 28 26 28 26 25 24 22 20 18
4 3 7 4 7 3 6 6 3 3 2 5 9 9 10 10 16 26 26 27 31 30 32 32 32 33 41 33 26 26 26 25 27 33 28 24 28 31 31 31 32 30 30 30 29 27 25 23 20
3 4 5 2 5 2 5 10 14 7 8 10 10 9 9 10 11 24 29 30 28 32 31 33 33 33 31 33 32 26 27 28 27 26 27 27 27 31 32 32 33 35 34 33 32 30 28 27 25
4 7 6 4 3 1 7 12 11 9 8 9 10 10 11 12 10 24 25 33 32 30 33 34 34 34 34 32 33 32 32 30 29 31 29 29 29 30 33 34 34 38 38 36 37 33 31 26 25
1 6 7 6 6 1 8 13 10 11 11 11 11 11 11 9 10 13 29 30 35 35 34 34 36 37 38 36 36 31 34 34 33 32 34 32 32 34 34 37 37 39 40 38 38 38 33 25 35
4 6 7 5 3 6 4 10 7 9 12 11 12 12 10 10 9 9 15 30 34 36 37 36 37 38 37 34 31 25 21 26 26 31 36 39 35 36 37 38 40 39 42 43 43 43 41 31 39
5 4 6 4 4 3 3 6 4 10 8 9 10 9 10 10 9 8 6 15 32 37 36 36 34 32 34 34 31 34 31 25 33 35 34 35 39 35 37 38 40 39 42 41 46 48 45 40 33
2 3 3 3 3 5 4 2 8 7 7 7 10 9 8 5 7 7 9 11 25 29 30 30 31 33 34 36 36 33 33 33 21 29 31 31 33 41 39 41 39 39 41 44 46 47 42 40 36
7 4 3 2 2 5 10 9 4 6 6 3 3 4 7 6 6 5 3 1 7 19 24 27 30 33 33 33 36 34 33 29 24 22 27 29 31 37 40 40 40 40 41 44 46 47 47 47 40
2 4 1 2 0 7 3 5 11 8 10 5 6 5 3 6 4 2 5 6 8 11 16 21 25 27 29 32 33 35 31 30 31 28 32 32 28 35 41 42 42 42 41 43 43 46 46 44 40
9 7 5 6 4 3 6 7 6 9 3 3 5 5 1 5 5 7 7 9 12 12 13 15 19 22 24 28 31 33 35 32 30 31 32 33 33 33 37 42 42 42 41 40 41 41 44 43 41
5 7 3 4 2 3 5 7 7 6 7 7 7 6 8 7 6 6 5 6 10 10 12 13 15 17 21 24 28 29 30 32 31 29 30 29 30 31 33 39 42 41 40 40 41 40 39 42 44
3 1 3 2 2 4 7 7 8 2 8 10 3 3 5 5 5 4 4 7 4 6 9 11 13 16 17 21 24 27 28 31 32 30 31 31 30 29 30 33 38 41 41 40 39 37 39 39 39
3 4 3 3 5 5 5 7 3 2 6 8 6 6 3 2 2 3 3 3 4 6 9 11 14 16 17 19 22 26 28 29 30 32 33 31 30 29 31 32 34 39 39 38 38 38 38 37 37
2 6 7 4 3 3 2 15 2 7 8 8 4 4 5 5 4 2 2 4 3 6 10 12 12 14 17 20 23 26 26 27 28 31 31 30 29 31 32 33 33 34 37 39 40 40 39 37 37
Wind_Direction
339 336 312 289 286 210 106 89 95 96 103 61 39 27 47 35 16 103 148 153 150 159 166 159 154 160 156 147 139 124 106 102 102 99 98 95 94 93 97 92 95 93 89 87 85 85 85 85 91
332 334 270 266 242 284 78 108 120 93 90 88 104 259 220 84 76 127 135 143 151 157 168 164 162 160 155 154 138 124 112 109 105 102 99 97 97 97 98 94 95 93 93 90 89 88 88 88 94
330 308 284 227 284 55 85 92 107 86 96 138 123 350 358 78 108 148 145 140 146 151 163 170 163 158 157 154 142 130 122 114 106 104 103 101 101 101 101 100 102 97 96 96 93 91 91 93 98
313 212 269 272 8 69 49 80 104 112 96 355 355 108 79 316 145 130 144 146 146 153 163 170 163 159 157 156 146 135 130 119 115 113 111 109 108 106 106 103 101 98 98 95 94 92 91 100 102
227 262 264 230 82 88 84 59 118 156 139 147 202 113 84 72 98 131 152 152 149 152 168 173 165 163 162 160 153 147 140 130 124 120 117 113 111 108 109 107 103 102 100 100 97 95 99 105 101
288 230 281 240 109 104 99 118 146 151 110 76 149 138 118 144 144 150 157 162 155 162 170 168 167 169 169 163 161 155 149 145 137 128 121 117 116 115 114 111 110 108 107 104 101 99 105 108 98
259 311 280 342 51 133 123 141 179 157 141 166 22 343 114 146 162 163 164 169 161 165 173 169 169 171 171 167 167 164 162 154 147 136 129 126 125 124 123 120 116 114 113 109 108 110 111 109 102
345 285 283 264 314 83 109 154 312 180 100 86 49 355 154 165 162 166 173 175 162 165 174 175 175 176 173 171 174 173 172 165 160 151 142 132 128 127 126 124 123 118 117 116 115 117 114 112 105
265 320 278 259 127 109 121 160 317 18 107 82 142 56 19 151 155 170 180 177 174 167 185 179 184 185 181 181 179 179 180 176 170 163 150 139 130 123 129 132 129 125 123 123 120 118 116 111 99
193 168 267 7 28 12 144 208 146 155 187 186 139 88 124 144 161 166 198 180 184 171 188 192 189 183 186 191 192 184 183 181 183 176 161 148 141 146 151 141 138 133 128 124 122 117 112 113 106
213 214 23 61 39 2 163 215 154 167 253 189 192 160 168 163 173 173 208 195 202 184 183 197 197 191 193 190 192 187 192 188 188 192 174 169 166 179 162 153 151 144 139 134 127 121 128 134 128
296 214 15 34 46 331 320 326 214 212 221 87 37 152 161 173 188 183 193 201 197 202 208 200 192 192 195 192 195 191 199 196 194 199 190 183 182 185 173 173 167 156 148 140 143 154 153 144 131
233 113 56 66 89 290 14 279 257 260 231 156 88 99 167 181 198 202 197 200 204 199 204 209 208 195 199 203 201 198 206 207 203 204 200 195 195 184 188 184 179 172 164 164 169 158 153 149 143
357 36 202 142 217 194 288 279 171 249 239 242 157 186 199 186 200 204 205 198 205 206 202 202 206 209 206 211 205 198 201 211 209 206 207 201 205 189 198 195 189 187 183 178 176 166 161 155 152
43 259 202 212 213 235 220 281 239 216 179 243 225 187 203 208 205 207 210 211 204 207 204 202 210 204 206 214 219 211 213 209 206 210 209 207 210 206 204 204 194 196 187 184 177 173 166 156 156
224 179 237 148 141 166 171 273 299 159 183 206 246 241 208 217 208 214 215 212 214 209 204 202 210 210 206 207 209 214 218 221 228 224 220 214 212 214 213 210 204 198 190 188 188 181 168 162 164
202 257 214 164 191 139 192 279 73 90 70 259 253 241 235 220 212 210 216 217 211 212 208 205 208 212 211 207 209 212 216 216 224 226 225 225 215 217 214 212 208 201 195 193 194 186 178 166 162
252 222 258 223 189 263 240 257 279 256 204 223 237 251 241 229 224 210 211 215 215 211 211 207 208 207 207 212 214 215 218 219 221 217 222 224 220 219 218 216 211 204 200 198 193 191 182 173 164
24 321 332 56 120 159 241 260 261 262 253 240 234 228 232 242 233 221 214 209 209 212 210 209 205 206 204 203 206 210 213 214 217 218 221 227 224 221 217 213 214 208 207 206 199 190 178 168 162
176 290 284 298 103 133 275 278 265 266 249 233 242 244 243 241 227 224 212 204 203 206 210 209 205 208 209 206 210 209 213 217 220 218 217 218 226 225 222 213 215 211 207 205 201 191 175 173 181
231 239 265 277 358 223 288 279 237 252 252 249 243 248 249 242 240 229 198 199 200 203 208 210 210 209 208 207 208 210 215 221 218 223 227 219 221 222 221 218 219 214 212 210 209 202 194 177 192
254 271 222 317 21 250 34 288 290 297 283 230 244 235 239 240 238 230 220 195 194 205 210 212 212 210 211 207 205 203 203 205 217 220 228 228 221 219 218 219 216 218 213 212 212 209 201 195 187
199 5 120 108 241 316 204 244 269 247 267 251 265 266 251 255 219 207 206 212 207 209 210 212 212 213 212 208 208 208 213 221 224 228 235 235 228 227 226 221 219 220 217 217 217 207 201 204 198
133 98 117 143 196 263 206 210 227 231 239 280 136 103 91 74 49 29 54 155 188 202 210 211 211 212 212 210 211 213 215 217 219 224 224 229 234 232 229 227 224 223 220 221 219 219 213 209 208
252 145 291 299 284 237 323 244 237 290 289 257 275 284 33 142 144 246 204 213 220 200 201 205 207 212 212 213 214 218 221 224 222 223 224 228 223 227 226 224 222 221 223 223 223 221 214 211 211
197 187 173 208 204 268 330 245 263 218 255 283 277 303 284 246 211 224 237 208 196 203 205 209 211 215 213 215 219 222 226 230 228 228 234 234 236 238 232 231 228 226 224 224 224 222 224 220 217
180 220 250 337 20 33 233 273 292 199 234 299 297 312 317 359 22 359 245 174 161 188 204 209 213 220 222 222 224 227 228 230 232 234 239 236 239 242 239 233 231 229 227 226 226 224 230 226 222
183 204 109 252 204 250 262 293 247 339 241 244 213 84 48 34 27 351 80 115 149 180 196 202 211 219 222 225 231 234 233 235 236 234 237 233 236 235 237 235 232 230 228 225 224 224 228 227 227
144 226 217 170 185 184 272 256 270 164 77 99 68 56 48 83 80 79 95 121 182 204 210 207 211 215 221 226 229 234 236 236 237 237 236 237 230 230 229 228 229 228 228 226 226 223 225 225 228
261 221 193 171 226 241 171 266 70 101 111 97 89 325 317 32 44 66 136 178 212 244 242 231 230 234 239 239 231 234 239 239 239 239 237 238 234 231 228 225 229 227 227 228 226 223 224 225 224